Temp
13 13 13 13 12 12 12 11 11 11 11 11 11 11 11 11 10 10 10 10 9 9 9 9 9 10 9 9 10 10 10 10 10 9 9 9 9 9 9 9 9 9
13 13 13 13 12 12 12 12 11 11 11 11 11 11 10 10 10 10 10 10 9 9 9 9 9 9 9 9 10 10 10 10 9 9 9 9 9 8 8 9 9 9
13 13 13 13 13 13 12 12 12 11 11 11 11 10 10 10 10 10 10 9 9 9 9 9 9 9 9 9 10 10 10 10 9 9 9 8 8 8 8 8 8 8
13 13 13 13 13 13 12 12 12 11 11 11 11 10 10 10 10 10 10 9 9 9 9 9 9 9 9 10 10 10 9 9 9 8 8 8 7 7 7 7 8 8
13 13 13 13 13 13 12 12 12 12 11 11 11 10 10 10 10 10 9 9 9 9 9 9 9 9 9 10 10 10 9 9 8 8 7 7 7 7 7 7 7 7
13 13 13 13 13 13 12 12 12 12 11 11 10 10 10 10 9 9 9 9 9 9 9 9 9 9 10 10 10 9 9 8 8 8 7 7 6 6 6 6 7 7
13 13 13 13 13 13 12 12 12 12 11 11 10 10 10 9 9 9 9 8 8 9 9 8 9 9 9 9 9 8 8 7 7 7 6 6 6 6 5 5 6 6
13 13 13 13 13 13 12 12 12 12 11 11 10 10 9 9 9 8 8 8 8 8 8 8 8 9 8 8 7 7 6 6 6 6 5 5 5 5 5 5 5 6
14 13 13 13 13 13 13 12 12 12 11 11 10 9 9 9 8 8 8 8 8 8 8 8 8 8 7 7 6 6 6 5 5 5 4 4 4 4 4 4 4 5
14 13 13 13 13 13 12 12 12 12 11 11 10 9 9 8 8 8 8 8 8 8 8 7 7 7 7 6 6 5 5 5 4 4 4 4 3 3 3 3 3 3
14 14 13 13 13 12 12 12 12 11 11 11 10 9 8 8 8 8 8 8 8 8 7 7 6 6 6 6 5 5 5 4 4 4 4 4 3 3 3 3 2 2
14 14 14 13 13 12 12 12 12 11 11 10 9 9 8 8 8 8 8 8 7 7 7 6 6 5 5 5 5 5 4 4 4 3 3 3 3 3 3 3 3 2
14 14 14 14 13 12 12 11 11 11 10 10 9 8 8 8 8 7 7 7 7 7 6 6 5 5 5 5 5 4 4 3 3 3 3 3 3 3 3 3 3 3
14 14 14 13 13 13 12 11 11 11 10 9 8 8 7 7 7 7 7 7 7 6 6 5 5 5 4 4 4 3 3 3 3 2 2 2 3 3 3 3 3 3
12 12 13 13 13 12 12 11 11 10 9 8 8 8 7 7 7 7 7 7 6 6 6 5 5 5 4 4 3 3 3 2 2 2 2 2 2 3 3 3 3 3
11 11 11 11 11 11 10 10 10 9 8 8 8 7 7 7 7 6 6 6 6 6 5 5 5 4 3 3 3 3 2 2 2 2 2 2 2 2 2 2 2 2
11 11 10 10 9 8 8 9 9 9 8 7 7 7 7 6 6 6 6 6 6 5 5 4 4 3 3 3 2 2 2 2 2 2 2 2 2 2 2 2 2 2
11 11 11 10 8 8 8 8 8 8 8 7 7 7 6 6 6 6 6 5 5 5 4 4 3 3 3 2 2 2 2 2 2 2 2 2 2 2 2 1 1 1
11 11 11 10 8 9 9 8 8 8 7 7 7 6 6 6 5 5 5 5 4 4 4 4 3 3 3 2 2 2 2 2 1 1 1 1 1 1 1 1 1 1
11 10 10 10 9 9 9 8 7 7 7 7 6 6 5 5 5 5 5 4 4 4 4 3 3 3 3 2 2 2 2 1 1 1 1 1 1 1 1 1 1 1
10 10 9 9 9 9 8 8 7 7 7 6 6 6 5 5 5 5 4 4 4 3 3 3 3 3 2 2 2 2 1 1 1 1 1 1 1 1 1 1 1 1
9 9 9 9 9 9 8 7 7 7 6 6 6 6 5 5 5 4 4 4 3 3 3 3 2 2 2 1 1 1 1 1 1 1 1 1 1 1 1 1 1 1
9 8 8 8 9 8 7 7 7 6 6 6 6 6 5 5 4 4 4 3 3 3 3 2 2 1 1 1 1 1 1 0 0 0 0 1 1 1 1 1 1 1
8 8 8 8 8 8 7 7 6 6 6 6 5 5 4 4 4 4 3 3 3 3 2 2 1 1 1 1 0 0 0 0 0 0 0 0 1 1 1 1 1 0
8 7 7 7 7 7 6 6 6 6 5 5 5 4 4 4 4 3 3 3 2 2 2 1 1 1 0 0 -0 -0 -0 -0 -0 -0 0 0 0 0 0 0 0 0
7 6 6 7 6 5 5 5 5 5 5 4 4 4 4 4 3 3 3 2 2 2 1 1 1 0 0 -0 -0 -0 -0 -0 -0 -0 -0 0 0 0 0 0 -0 -0
Height
1515 1516 1517 1519 1520 1521 1521 1522 1522 1523 1523 1524 1524 1525 1525 1525 1525 1525 1525 1525 1525 1524 1524 1524 1524 1523 1523 1523 1522 1522 1521 1521 1520 1520 1519 1519 1518 1518 1518 1518 1518 1518
1513 1514 1515 1517 1518 1519 1519 1520 1521 1521 1522 1523 1523 1523 1523 1523 1524 1524 1524 1524 1523 1523 1523 1523 1523 1522 1522 1522 1521 1521 1520 1520 1519 1518 1518 1518 1517 1517 1517 1517 1516 1516
1512 1512 1513 1514 1516 1517 1517 1518 1519 1520 1520 1521 1521 1522 1522 1522 1522 1522 1522 1522 1522 1522 1522 1522 1521 1521 1521 1520 1519 1519 1518 1518 1518 1517 1517 1516 1516 1515 1515 1515 1514 1514
1510 1511 1512 1513 1514 1515 1516 1517 1517 1518 1519 1519 1520 1520 1521 1521 1521 1521 1521 1521 1521 1521 1521 1520 1520 1520 1519 1518 1517 1517 1516 1516 1515 1515 1515 1514 1514 1514 1513 1513 1512 1512
1508 1510 1511 1512 1512 1513 1514 1514 1515 1516 1516 1517 1518 1518 1519 1519 1520 1520 1520 1520 1520 1519 1519 1519 1518 1518 1517 1517 1516 1515 1514 1514 1513 1512 1512 1512 1512 1511 1511 1510 1510 1509
1507 1508 1509 1510 1511 1511 1512 1512 1513 1514 1514 1515 1516 1516 1517 1517 1518 1518 1518 1518 1518 1518 1518 1517 1517 1516 1515 1515 1514 1513 1512 1512 1511 1510 1510 1509 1509 1509 1508 1508 1507 1507
1504 1506 1507 1508 1509 1509 1509 1509 1510 1511 1511 1512 1513 1513 1514 1515 1515 1516 1516 1517 1517 1516 1516 1515 1515 1514 1513 1513 1512 1511 1510 1510 1509 1508 1507 1507 1506 1506 1506 1505 1504 1503
1502 1503 1504 1505 1506 1506 1506 1507 1507 1508 1509 1509 1510 1511 1511 1512 1513 1514 1514 1514 1514 1514 1514 1514 1513 1512 1511 1511 1510 1509 1509 1508 1507 1506 1505 1505 1504 1503 1503 1503 1502 1501
1499 1501 1501 1502 1503 1503 1503 1504 1504 1505 1506 1507 1507 1508 1509 1509 1510 1511 1511 1512 1512 1512 1512 1511 1511 1510 1510 1509 1508 1508 1507 1506 1505 1505 1503 1503 1502 1501 1501 1500 1499 1499
1496 1497 1498 1499 1499 1499 1500 1501 1502 1503 1503 1504 1505 1506 1506 1507 1508 1508 1509 1509 1509 1509 1509 1509 1508 1508 1508 1507 1507 1506 1505 1505 1504 1503 1502 1501 1500 1499 1498 1498 1497 1496
1493 1494 1495 1496 1497 1497 1498 1499 1500 1500 1501 1501 1502 1503 1504 1505 1505 1506 1506 1506 1507 1507 1506 1506 1506 1506 1506 1505 1505 1504 1503 1503 1502 1501 1500 1499 1498 1497 1496 1496 1495 1494
1489 1490 1491 1492 1494 1495 1496 1497 1498 1498 1499 1499 1500 1501 1503 1503 1503 1504 1504 1504 1504 1504 1504 1504 1504 1504 1504 1503 1503 1502 1501 1501 1500 1499 1498 1497 1496 1495 1494 1493 1492 1491
1485 1486 1487 1489 1491 1492 1494 1496 1496 1496 1497 1498 1499 1500 1501 1502 1502 1502 1502 1502 1502 1502 1502 1502 1502 1502 1501 1501 1500 1499 1499 1498 1497 1496 1495 1494 1493 1492 1491 1490 1489 1489
1482 1483 1483 1485 1487 1488 1491 1493 1494 1494 1495 1496 1497 1498 1500 1501 1501 1500 1500 1499 1499 1499 1500 1500 1500 1499 1499 1498 1498 1497 1496 1495 1494 1493 1491 1490 1489 1488 1487 1487 1486 1485
1480 1480 1480 1481 1482 1482 1485 1488 1491 1492 1493 1494 1495 1496 1497 1499 1499 1498 1498 1497 1497 1497 1497 1497 1497 1497 1497 1496 1495 1494 1493 1492 1491 1490 1488 1487 1485 1484 1483 1483 1482 1481
1477 1477 1477 1477 1476 1475 1479 1483 1488 1490 1491 1492 1492 1494 1495 1496 1496 1496 1496 1495 1495 1495 1495 1495 1495 1494 1494 1493 1493 1491 1490 1489 1488 1486 1485 1483 1481 1480 1479 1479 1478 1477
1473 1473 1473 1473 1473 1474 1479 1484 1487 1488 1490 1490 1490 1492 1493 1494 1494 1494 1494 1493 1493 1493 1493 1493 1493 1492 1491 1490 1490 1489 1487 1486 1484 1483 1481 1479 1478 1476 1475 1474 1473 1473
1469 1469 1468 1469 1471 1474 1478 1482 1485 1486 1488 1488 1489 1490 1491 1492 1492 1492 1492 1491 1490 1490 1491 1491 1490 1490 1489 1488 1487 1486 1484 1482 1481 1479 1477 1476 1474 1472 1471 1470 1469 1468
1465 1465 1464 1465 1468 1471 1474 1478 1481 1483 1485 1486 1486 1487 1489 1490 1490 1490 1490 1489 1488 1488 1488 1488 1488 1487 1486 1485 1484 1482 1481 1479 1477 1475 1473 1472 1470 1469 1467 1466 1464 1463
1460 1461 1461 1462 1465 1468 1470 1474 1477 1480 1481 1482 1483 1484 1486 1488 1488 1488 1488 1487 1486 1486 1485 1485 1486 1485 1484 1482 1480 1479 1478 1476 1474 1472 1470 1468 1467 1465 1463 1461 1460 1459
1456 1457 1458 1459 1462 1464 1467 1470 1473 1475 1476 1477 1478 1480 1483 1484 1485 1485 1485 1485 1484 1483 1482 1482 1483 1482 1481 1479 1477 1476 1474 1472 1470 1467 1465 1464 1462 1461 1459 1457 1456 1455
1453 1453 1453 1455 1457 1460 1462 1466 1469 1471 1471 1472 1475 1477 1479 1480 1481 1482 1482 1482 1481 1480 1480 1480 1480 1479 1478 1476 1475 1473 1470 1468 1465 1463 1460 1458 1457 1456 1454 1452 1451 1450
1449 1449 1450 1452 1454 1456 1459 1461 1464 1467 1468 1470 1472 1474 1476 1477 1478 1479 1479 1478 1478 1477 1477 1477 1476 1476 1475 1473 1471 1469 1466 1463 1461 1458 1455 1453 1451 1450 1448 1447 1445 1444
1446 1446 1448 1450 1451 1452 1454 1457 1461 1464 1466 1468 1470 1472 1474 1474 1475 1475 1475 1475 1475 1475 1474 1474 1473 1473 1472 1470 1468 1466 1463 1459 1456 1453 1450 1447 1445 1443 1442 1440 1439 1438
1442 1443 1445 1446 1447 1448 1450 1453 1458 1462 1464 1466 1469 1471 1471 1472 1472 1472 1472 1472 1472 1472 1471 1471 1470 1469 1468 1466 1464 1462 1459 1456 1452 1448 1444 1442 1439 1437 1435 1434 1433 1431
1440 1442 1443 1444 1445 1447 1448 1451 1455 1460 1463 1465 1467 1468 1469 1470 1470 1470 1470 1470 1470 1469 1469 1468 1467 1465 1464 1463 1461 1459 1456 1452 1448 1444 1440 1437 1434 1431 1428 1427 1426 1425
Wind_Speed
21 19 16 14 13 11 11 11 11 10 10 10 9 8 8 7 6 5 5 6 7 9 10 11 11 11 10 10 9 9 8 7 7 8 8 9 10 12 14 17 19 21
22 20 18 16 14 13 12 12 12 11 11 11 10 10 10 9 8 7 7 7 9 10 12 12 12 11 10 10 10 10 10 10 10 9 9 9 9 10 11 13 15 18
23 21 19 17 15 14 13 13 13 13 12 12 12 12 11 11 10 9 8 9 10 12 13 14 13 13 12 12 12 12 13 13 12 12 12 11 11 12 12 13 14 15
24 22 20 18 16 14 13 14 14 14 14 14 13 13 12 12 11 10 9 10 12 13 14 14 14 13 13 13 13 14 15 15 15 15 15 14 14 15 15 15 16 16
25 23 20 19 17 16 16 15 15 15 15 14 14 14 13 13 12 11 11 12 13 14 15 14 14 13 13 14 14 15 16 17 18 18 18 18 18 18 18 18 18 18
26 24 22 20 19 18 18 17 16 16 16 15 15 15 14 14 13 12 12 13 15 15 15 15 14 13 14 14 15 17 18 19 20 20 21 21 21 22 21 21 21 21
27 26 23 22 22 21 20 19 17 17 17 17 17 16 15 15 14 13 14 15 15 15 15 15 14 13 14 15 17 18 20 21 22 22 23 23 24 24 23 24 24 24
28 27 25 25 24 24 23 21 20 18 18 18 18 18 17 15 14 14 15 16 16 15 14 14 13 13 14 16 18 20 21 22 23 23 25 26 26 26 26 26 26 25
29 28 28 28 27 27 26 24 22 20 19 19 19 19 18 17 16 15 16 16 15 14 13 12 12 12 14 16 18 20 21 22 23 24 25 26 27 28 28 27 27 27
31 30 31 31 31 30 28 26 24 21 21 20 20 20 19 18 17 17 17 16 14 13 12 11 11 13 14 16 18 19 20 21 22 23 24 25 26 27 28 28 28 29
33 32 33 34 34 33 30 28 25 23 22 21 21 21 20 19 18 18 16 14 13 12 11 11 12 14 15 16 17 18 19 19 20 21 22 24 25 27 28 29 29 31
36 35 36 36 36 35 33 30 27 25 23 22 21 21 21 20 19 17 14 13 12 11 10 11 13 15 16 17 17 17 18 20 21 23 25 26 27 28 29 29 29 31
37 37 37 38 38 38 36 32 29 26 24 23 21 20 21 20 18 15 13 12 11 10 11 13 14 16 17 17 17 18 20 22 24 26 28 29 30 31 31 30 29 30
40 39 40 40 40 39 38 35 31 27 25 22 20 20 20 19 17 14 12 11 11 11 12 14 16 17 17 17 18 20 22 24 26 28 31 32 33 33 32 32 31 30
42 41 42 43 43 43 42 38 32 28 24 22 21 20 19 18 15 13 12 12 11 12 13 15 17 17 17 18 20 22 24 27 29 31 33 35 35 35 34 33 32 31
45 43 43 45 47 45 40 36 31 26 23 21 20 18 17 16 14 13 13 12 12 13 15 16 17 17 18 20 22 24 27 30 32 35 36 36 36 36 36 35 34 33
44 45 44 44 43 38 32 28 26 23 22 20 18 16 16 15 13 13 13 13 14 14 16 17 18 18 19 21 24 26 29 32 35 36 36 36 36 36 36 35 35 35
35 40 43 42 38 34 30 28 26 23 21 19 16 15 15 14 13 14 14 14 15 15 17 18 19 20 21 23 26 29 31 32 33 33 33 34 34 34 35 35 36 36
30 35 40 40 34 31 32 30 27 24 20 17 16 15 14 14 14 14 14 15 15 16 17 19 20 22 23 26 29 30 30 30 30 30 31 32 33 33 34 35 35 37
31 33 38 36 30 28 30 30 26 22 19 17 16 14 14 14 14 14 15 16 16 17 18 20 21 23 25 27 28 28 27 28 29 31 32 33 34 34 34 35 35 36
33 35 37 34 30 30 31 28 25 22 21 18 16 15 14 14 14 15 16 16 17 18 19 21 22 23 25 26 27 27 28 30 31 33 35 36 36 35 34 35 35 36
35 38 39 37 35 34 32 29 26 23 21 18 16 15 15 14 14 15 16 16 17 18 20 21 21 23 26 27 28 29 31 33 34 37 39 39 39 37 36 36 36 36
34 39 41 39 38 35 32 30 26 22 19 17 16 15 14 14 15 15 15 16 17 18 19 20 21 24 27 28 29 30 32 35 38 40 42 41 40 39 38 38 38 38
32 38 40 39 38 36 32 27 24 20 18 16 14 14 14 14 14 14 14 15 15 16 17 20 22 25 27 28 29 31 34 38 41 42 43 42 41 40 40 40 40 40
33 37 40 40 38 36 31 27 24 20 17 15 14 14 14 13 13 13 13 13 13 15 18 21 24 26 27 28 30 33 37 40 41 42 42 42 42 42 42 42 41 41
33 36 39 39 37 33 29 25 21 17 15 14 14 13 12 12 12 11 11 11 13 16 18 21 24 25 26 29 33 36 38 39 39 40 41 42 42 43 43 44 43 42
Wind_Direction
223 225 225 227 229 226 227 232 236 242 247 250 254 257 257 259 264 273 289 308 321 329 332 330 328 327 326 326 325 326 331 333 329 322 313 303 290 281 275 273 273 273
224 224 223 226 227 225 227 232 237 243 247 250 253 256 259 263 269 277 289 304 314 319 319 317 317 317 317 316 318 325 331 334 335 332 327 321 313 303 291 283 278 276
226 224 223 226 226 223 226 232 237 242 245 246 247 250 256 261 267 275 284 296 305 308 308 310 310 309 311 315 320 326 328 330 330 328 328 327 323 318 312 303 293 284
227 227 227 229 228 224 226 230 235 239 240 241 243 245 250 254 260 268 278 287 293 298 301 303 304 305 308 313 320 324 325 326 327 325 325 324 322 320 318 314 309 301
231 231 231 231 230 226 225 228 232 236 237 238 240 241 243 247 253 261 269 277 283 291 296 297 298 300 304 310 316 320 322 323 324 324 323 323 323 321 318 315 312 309
236 235 233 233 230 227 226 227 230 235 237 237 237 238 239 241 246 253 260 269 278 286 290 291 293 296 303 311 316 319 321 321 322 322 320 321 321 319 319 316 312 309
238 236 234 233 231 229 228 228 229 232 235 236 235 235 236 238 242 248 255 264 273 281 284 286 288 297 307 313 317 319 320 321 320 319 318 318 317 316 316 314 312 310
240 237 235 234 230 228 229 228 227 229 232 233 232 231 233 235 240 245 252 261 270 276 279 281 289 302 311 313 315 317 318 318 318 317 316 315 315 314 314 313 310 308
243 240 237 235 231 228 228 227 226 225 228 231 231 231 231 232 237 243 250 259 268 272 273 279 292 304 309 310 312 313 313 314 314 313 313 313 312 312 312 311 309 307
244 242 240 237 234 231 229 228 225 224 226 229 230 231 231 232 236 241 249 258 265 267 272 283 294 300 303 306 308 308 309 309 310 310 310 310 311 311 311 309 307 305
245 245 244 241 239 235 231 229 226 224 225 227 228 229 231 233 235 240 248 256 259 263 274 286 292 296 299 302 302 302 303 305 306 308 309 309 310 309 309 307 304 302
247 247 247 245 243 240 235 231 227 225 225 227 228 229 232 234 237 242 247 250 254 265 278 285 290 295 296 297 297 298 302 305 308 310 309 309 308 306 306 304 301 298
250 253 252 249 247 244 240 234 229 227 226 226 228 230 234 236 238 241 242 245 256 269 280 287 291 294 294 296 299 303 307 309 309 309 309 308 307 305 303 301 298 295
251 255 255 252 249 246 242 236 231 228 226 226 227 230 234 237 238 238 238 244 258 271 282 290 292 293 296 301 305 307 308 307 306 306 307 307 306 305 304 301 299 295
251 253 252 251 249 246 240 234 230 228 225 223 224 226 230 234 234 234 238 247 259 271 282 289 293 297 302 305 305 305 303 303 303 304 305 305 304 304 303 301 299 297
253 253 252 250 246 239 232 228 226 226 224 220 220 223 227 229 229 232 240 251 262 274 284 293 298 301 303 301 300 300 300 301 302 302 303 303 302 302 301 300 298 297
258 258 257 252 244 234 226 224 225 225 223 220 218 221 224 226 230 235 244 255 266 279 292 300 302 300 298 297 296 297 299 301 302 302 302 301 300 299 298 297 296 295
266 263 261 256 248 237 228 227 227 224 220 218 217 219 223 228 234 243 252 262 272 285 298 302 299 296 294 295 296 299 301 303 303 304 303 302 300 298 297 295 294 293
270 265 262 256 246 236 231 226 222 218 214 214 216 218 224 231 239 251 261 269 278 290 297 296 294 293 294 297 300 302 303 303 304 305 305 304 302 300 297 294 293 292
270 265 260 251 235 228 227 219 212 210 208 210 212 217 227 237 247 259 267 274 283 290 293 292 292 294 298 301 303 303 302 302 303 305 305 305 304 301 298 295 293 292
265 260 253 241 226 223 222 212 204 204 203 204 208 216 230 242 254 263 268 275 283 288 289 290 292 298 305 307 305 304 304 304 304 305 306 306 304 301 298 295 294 292
261 255 246 235 224 218 212 203 201 201 198 201 208 217 230 244 253 261 267 275 281 285 287 290 295 304 310 310 307 306 307 307 307 307 307 307 305 302 299 296 294 292
259 252 243 231 218 208 201 198 198 196 195 203 212 220 232 242 249 258 267 275 280 284 289 294 301 307 310 309 308 308 309 309 310 310 309 308 306 304 301 298 295 293
256 248 238 222 208 201 198 194 190 190 195 204 213 222 231 239 249 259 268 275 281 288 296 301 304 307 309 309 310 311 311 311 312 311 310 309 307 306 303 299 297 294
251 243 231 215 202 196 190 182 181 187 194 201 210 222 232 242 254 261 267 277 288 296 300 302 304 306 309 311 312 313 313 314 314 312 311 310 309 306 303 300 298 295
242 231 217 202 190 183 177 173 177 185 190 199 211 224 237 249 256 263 274 288 296 299 300 302 305 309 312 313 314 315 317 317 316 314 313 312 309 306 304 301 298 296